Regional Weather Roundup
Issued by NWS San Diego, CA

Home | Current Version | Previous Version | Text Only | Print | Product List | Glossary On
Versions: 1 2 3 4 5 6 7 8 9 10 11 12 13 14 15 16 17 18 19 20 21 22 23 24 25 26 27 28 29 30 31 32 33 34 35 36 37 38 39 40 41 42 43 44 45 46 47 48 49 50
000
ASUS46 KSGX 300811
RWRSGX

SAN DIEGO HOURLY WEATHER ROUNDUP
NATIONAL WEATHER SERVICE SAN DIEGO CA
100 AM PDT TUE JUN 30 2015

NOTE: "FAIR" INDICATES FEW OR NO CLOUDS BELOW 12,000 FEET WITH NO
SIGNIFICANT WEATHER AND/OR OBSTRUCTIONS TO VISIBILITY.

CAZ042-043-060-061-PZZ750-775-300900-

GREATER SAN DIEGO AREA

CITY           SKY/WX    TMP DP  RH WIND       PRES   REMARKS
LINDBERGH FLD  PTCLDY    69  62  78 NW3       29.91F
POINT LOMA       N/A     64  61  90 NW9         N/A
CHULA VISTA      N/A     66  64  93 CALM      29.83F
IMPERIAL BEACH PTCLDY    63  60  90 SW3       29.90F FOG
BROWN FIELD    CLEAR     65  62  90 CALM      29.90F
MIRAMAR MCAS   PTCLDY    68  61  78 CALM      29.91S
MONTGOMERY FLD CLEAR     68  62  81 CALM      29.91S

$$

NORTH SAN DIEGO COUNTY

CITY           SKY/WX    TMP DP  RH WIND       PRES   REMARKS
CAMP PENDLETON CLEAR     64  59  83 CALM      29.90R HAZE
OCEANSIDE AP   CLEAR     65  60  84 CALM      29.89S
VISTA            N/A     66  60  82 CALM      29.87F
CARLSBAD       PTCLDY    67  63  87 CALM      29.89S
DEL MAR          N/A     64  63  96 CALM      29.91F
FALLBROOK        N/A     66  66  98 CALM      29.88F
SAN MARCOS       N/A     67  62  85 CALM      29.88S
POWAY            N/A     65  61  85 CALM      29.91S

$$

EAST SAN DIEGO COUNTY

CITY           SKY/WX    TMP DP  RH WIND       PRES   REMARKS
RAMONA         PTCLDY    66  58  75 CALM      29.93S
SANTEE LAKES     N/A     67  62  85 CALM      29.90R
LA MESA          N/A     66  62  87 CALM      29.66S
JAMUL            N/A     65  62  90 CALM      29.89S
DESCANSO N       N/A     69  55  59 CALM      29.73S
CAMPO            N/A     66  59  78 NE7       29.96F

$$

ORANGE COUNTY AND THE LOS ANGELES BASIN

CITY           SKY/WX    TMP DP  RH WIND       PRES   REMARKS
JOHN WAYNE AP  CLEAR     68  63  84 CALM      29.88F
LAKE FOREST FR   N/A     67  58  74 CALM      29.77F
SANTA ANA        N/A     68  63  83 CALM      29.83F
LOS ALAMITOS   FAIR      66  65  96 SW2       29.88F
FULLERTON      CLEAR     71  61  70 CALM      29.87F
LONG BEACH     CLEAR     70  63  78 CALM      29.88F
L.A. AP        PTCLDY    67  60  78 NW5       29.90F
L.A. DOWNTOWN  CLEAR     68  59  73 CALM      29.89F

$$

THE INLAND EMPIRE

CITY           SKY/WX    TMP DP  RH WIND       PRES   REMARKS
CORONA         PTCLDY    70  61  73 CALM      29.91R
CHINO          CLEAR     72  59  63 CALM      29.91F
ONTARIO        PTCLDY    74  58  57 SW5       29.90F
RIVERSIDE AP   CLEAR     74  60  61 CALM      29.91F
MORENO VALLEY    N/A     75  59  56 CALM      29.90S
MARCH ARB      PTCLDY    72  56  56 NW2       29.93F
HORSETHIEF CYN   N/A     73  55  52 W3        29.84F
PERRIS           N/A     76  56  49 NW2         N/A
MENIFEE          N/A     77  61  57 W1        29.97F
HEMET EAST       N/A     76  52  42 CALM      29.88F
FRENCH VALLEY  FAIR      72  55  56 CALM      29.93S
TEMECULA         N/A     72  61  69 CALM      29.87S

$$

SAN BERNARDINO AND RIVERSIDE COUNTY MOUNTAINS

CITY           SKY/WX    TMP DP  RH WIND       PRES   REMARKS
BIG BEAR AP    MOCLDY    54  45  71 CALM      30.31S
ANGELUS OAKS     N/A     65  49  55 CALM      29.77S
PINE COVE        N/A     69  53  57 CALM      29.83F

$$

SOUTHERN DESERT INCLUDING THE COACHELLA VALLEY

CITY           SKY/WX    TMP DP  RH WIND       PRES   REMARKS
PALM SPRINGS   PTCLDY    95  55  26 CALM      29.81S
THOUSAND PALMS   N/A     95  52  23 NW8       29.78S
PALM DESERT      N/A     91  59  33 CALM      26.26S
THERMAL        PTCLDY    90  58  33 NE5       29.74R
BLYTHE         CLOUDY    95  64  35 S13       29.77F HX  97
IMPERIAL AP    PTCLDY    93  63  36 SE3       29.74S
EL CENTRO NAS  PTCLDY    90  62  39 SE5       29.76S
YUMA AZ        MOCLDY    90  66  45 S7        29.78F

$$

UPPER DESERT

CITY           SKY/WX    TMP DP  RH WIND       PRES   REMARKS
VICTORVILLE AP PTCLDY    81  45  28 SW6       30.00F
HESPERIA         N/A     76  55  48 CALM      29.93F
APPLE VALLEY     N/A     77  53  42 CALM      30.05F
PALMDALE       PTCLDY    80  43  26 SW7       29.98F
LANCASTER      PTCLDY    78  41  26 W7        29.97S
EDWARDS AFB    MOCLDY    80  50  34 SW8       29.94F
DAGGETT        CLOUDY    89  47  23 NW10      29.92S
29 PALMS N     MOCLDY    89  52  28 W8        29.99S

$$

REGIONAL REPORTS

CITY           SKY/WX    TMP DP  RH WIND       PRES   REMARKS
SANTA BARBARA  PTCLDY    64  59  83 E5        29.87F
SANDBERG       PTCLDY    78  48  34 NW10      30.13F
LAS VEGAS NV   MOCLDY    97  49  19 S9        29.85R
PHOENIX AZ     CLOUDY    92  64  39 CALM      29.82S
TIJUANA        CLEAR     66  59  77 CALM      29.92
ENSENADA NW      N/A     67  32  27 CALM      29.86F

$$

OFFSHORE ISLANDS

CITY           SKY/WX    TMP DP  RH WIND       PRES   REMARKS
CATALINA ARPT  CLEAR     75  42  30 SE3       29.95F
SAN NICOLAS IS PTCLDY   N/A N/A N/A W10       29.90R

$$

MARINE AND OFFSHORE BUOY REPORTS

STATION/POSITION SKY/WX   TEMP    WIND        PRES    SWELL
                          AIR SEA DIR/SP/G            HT/PER/DIR
                          (F)     (DEG/KT/KT) (MB)    (FT/S/D)
TANNER BANKS               60 62  300/ 14/ 16 1013.0F   3/310/ 7
S CLEMENTE BASIN           64 67  290/  8/ 10 1012.4F   5/280/ 7
SAN NICOLAS IS.               62                N/A     2/200/14
SO. S. ROSA ISLA           59 60  310/ 17/ 21 1011.6F   2/ 9
W. S. BARBARA CH           58 58  320/ 17/ 19 1011.4S   2/290/14
M. S. BARBARA CH           60 64  220/ 14/ 16 1012.4F
S. MONICA BASIN            65 67   CALM  /  2 1012.2F   3/270/ 7
S PEDRO CHANNEL               67                N/A     2/170/11
DANA POINT                    66                N/A     2/190/14
OCEANSIDE OFFSHR              71                N/A     2/220/18
TORREY PINES OTR              70                N/A     2/200/13
LA JOLLA 1                 66 69  160/  3/  3 1012.5F
MISSION BAY BUOY              70                N/A     2/200/14
SAN DIEGO BAY                 72              1013.0F
POINT LOMA SOUTH              69                N/A     2/210/13

$$



USA.gov is the U.S. government's official web portal to all federal, state and local government web resources and services.